[[{"header":{"parameterUnit":"m.s-1","parameterCategory":1,"la1":30.2991,"la2":30.254,"lo1":-89.0895,"lo2":-89.0444,"dy":0.0017,"dx":0.0017,"nx":28,"ny":28,"refTime":"2024-12-09T09:00:00:Z","depth":0,"parameterNumber":2,"parameterNumberName":"U-component_of_WINDS"},"data":[0,0,0,0,0,0,0,0,0,0,0,0,0,0,0,0,0,0,0,0,0,0,0,0,0,0,0,0,0,0,0,0,0,0,0,0,0,0,0,0,0,0,0,0,0,0,0,0,0,0,0,0,0,0,0,0,0,0,0.1605,0.1606,0,0.1675,0.1676,0.1677,0.172,0.172,0.172,0.1721,0.1793,0.1795,0.1797,0,0,0,0,0,0,0,0,0,0,0,0,0,0.151,0.1512,0.1605,0.1606,0.1607,0.1675,0.1676,0.1677,0.172,0.172,0.1721,0.1721,0.1793,0.1795,0.1797,0,0,0,0,0,0,0,0,0,0,0,0,0,0.1563,0.1512,0.1605,0.1637,0.164,0.1675,0.1676,0.1677,0.172,0.172,0.1721,0.1721,0.1792,0.1794,0.1797,0.1806,0,0,0.1805,0.1806,0,0,0,0,0,0,0,0,0.156,0.1566,0.1631,0.1635,0.1639,0.1689,0.1669,0.1721,0.172,0.169,0.1721,0.1721,0.1758,0.1764,0.1776,0.181,0.1813,0.1805,0.1807,0.1808,0.1809,0,0,0,0,0,0,0,0.1556,0.1564,0.1633,0.1632,0.1637,0.1648,0.1656,0.1679,0.1721,0.1692,0.1696,0.1703,0.1761,0.1774,0.1778,0.1814,0.1805,0.1807,0.1809,0.181,0.186,0.1859,0,0,0,0,0,0,0.1547,0.156,0.1631,0.1635,0.1599,0.1649,0.1658,0.1673,0.1721,0.1729,0.1703,0.1705,0.1769,0.1775,0.1781,0.1796,0.1808,0.181,0.1812,0.186,0.1859,0.1859,0,0,0,0,0,0,0.1545,0.1553,0.1628,0.1599,0.1609,0.165,0.1667,0.1674,0.1687,0.1729,0.1737,0.1708,0.177,0.1777,0.18,0.1799,0.1811,0.1814,0.186,0.186,0.1859,0.1825,0,0,0,0,0,0,0.1542,0.1552,0.1556,0.1598,0.161,0.1645,0.1667,0.1675,0.1691,0.1695,0.1736,0.1744,0.177,0.1796,0.1802,0.1803,0.1816,0.186,0.186,0.1859,0.1826,0.1823,0.1821,0,0,0,0,0,0.1539,0.1543,0.1556,0.1564,0.1616,0.1645,0.1652,0.1682,0.1691,0.1695,0.1722,0.1742,0.1798,0.1798,0.1806,0.1807,0.1861,0.186,0.1859,0.1827,0.1824,0.1821,0,0,0,0,0,0,0.1499,0.1549,0.1564,0.1582,0.1609,0.1652,0.1658,0.1677,0.1703,0.1705,0.1742,0.1751,0.177,0.179,0.1789,0.1819,0.1831,0.1832,0.1804,0.1801,0.1799,0.1794,0.1818,0,0,0,0,0,0.1493,0.1512,0.1555,0.1567,0.158,0.1617,0.1631,0.1652,0.1681,0.1693,0.1722,0.175,0.1774,0.1789,0.1813,0.1829,0.184,0.1834,0.1831,0.1829,0.1829,0.1841,0.1839,0.1858,0.1858,0.1858,0,0,0.1479,0.1509,0.1519,0.156,0.1583,0.1603,0.1626,0.1646,0.1661,0.1696,0.1719,0.1741,0.1775,0.1795,0.1805,0.1813,0.1827,0.1828,0.1826,0.1828,0.184,0.1838,0.1837,0.1857,0.1857,0.1857,0,0,0.1466,0.1489,0.1503,0.1526,0.1561,0.1585,0.1588,0.1629,0.1645,0.1669,0.1696,0.1715,0.1755,0.1778,0.1795,0.1791,0.181,0.1797,0.1784,0.1794,0.1793,0.1792,0.1791,0.179,0.1798,0.1798,0.1798,0,0.1445,0.1475,0.1507,0.1526,0.1543,0.1576,0.159,0.161,0.1652,0.1663,0.1671,0.1723,0.1748,0.1774,0.1773,0.1785,0.179,0.1793,0.179,0.179,0.1789,0.1789,0.1788,0.1796,0.1796,0.1796,0.1797,0,0.1448,0.1469,0.1476,0.1515,0.1533,0.1549,0.1584,0.1598,0.1618,0.1642,0.1666,0.1697,0.1729,0.1737,0.1756,0.1766,0.177,0.1783,0.1797,0.1785,0.1785,0.1786,0.1794,0.1794,0.1795,0.1795,0,0,0.1411,0.1468,0.147,0.1489,0.153,0.1547,0.1565,0.1596,0.1608,0.1635,0.1652,0.1685,0.1698,0.1718,0.174,0.1749,0.1745,0.1762,0.1763,0.1758,0.1759,0.1749,0.1748,0.1758,0.1758,0.1758,0.1756,0,0.1404,0.1438,0.1467,0.149,0.1511,0.1542,0.1558,0.1585,0.1608,0.1629,0.1654,0.1678,0.1693,0.1705,0.1715,0.1743,0.1745,0.1743,0.1774,0.1775,0.1765,0.1748,0.1737,0.1734,0.1756,0.1757,0.1757,0,0.14,0.1426,0.1451,0.1492,0.1501,0.1515,0.1546,0.1565,0.1597,0.1613,0.1635,0.1658,0.1679,0.169,0.1721,0.1718,0.1733,0.1748,0.1749,0.1754,0.1765,0.1753,0.1734,0.1734,0.1757,0.1757,0.1757,0,0.1372,0.1413,0.1434,0.1449,0.1496,0.1505,0.1525,0.1557,0.1574,0.1601,0.1613,0.1642,0.1658,0.168,0.1711,0.1717,0.1739,0.1752,0.1753,0.1753,0.1757,0.1757,0.1741,0.1765,0.1765,0.1765,0.1765,0,0.1361,0.1375,0.1422,0.1435,0.1452,0.1486,0.1502,0.1525,0.1554,0.1572,0.1601,0.1617,0.1657,0.1678,0.1702,0.1724,0.1731,0.1745,0.1752,0.1743,0.1741,0.1754,0.1755,0.1765,0.1765,0.1765,0.1765,0,0.1332,0.1364,0.1389,0.1432,0.1443,0.1454,0.1491,0.1505,0.1529,0.1552,0.1559,0.1598,0.1625,0.1658,0.1695,0.1712,0.1731,0.174,0.172,0.1724,0.1724,0.1724,0.1716,0.1717,0.1739,0.1739,0.1739,0,0.1323,0.1335,0.138,0.1394,0.1413,0.1436,0.1453,0.1487,0.1504,0.1542,0.1552,0.1581,0.1606,0.1647,0.1679,0.1708,0.1719,0.1714,0.1724,0.1715,0.172,0.1719,0.1721,0.1712,0.1712,0.1711,0.1711,0,0.1305,0.132,0.1344,0.1374,0.1394,0.142,0.1446,0.1456,0.1496,0.1514,0.1542,0.1561,0.1599,0.1628,0.1661,0.1683,0.1704,0.1708,0.171,0.1702,0.169,0.1697,0.1715,0.1708,0.1708,0.1708,0.1709,0.1709,0.1287,0.1299,0.1332,0.1359,0.1382,0.1406,0.1422,0.1449,0.1472,0.1506,0.1525,0.1553,0.1585,0.1632,0.1653,0.1675,0.1683,0.1685,0.1686,0.1686,0.1684,0.1685,0.1681,0.1681,0.1681,0.1681,0.1682,0,0.127,0.1294,0.1317,0.1354,0.1374,0.1392,0.1423,0.1439,0.1463,0.1491,0.1516,0.1548,0.1576,0.161,0.1641,0.1653,0.1663,0.166,0.166,0.1664,0.1675,0.1671,0.1651,0.1651,0.1651,0.1651,0.1651,0.1651,0.1264,0.1287,0.1306,0.1341,0.1364,0.1391,0.1407,0.143,0.1453,0.1488,0.1512,0.1534,0.1565,0.1598,0.1625,0.1635,0.1645,0.1639,0.1651,0.1661,0.1663,0.1666,0.1662,0.164,0.164,0.1639,0.1639,0.1639]},{"header":{"parameterUnit":"m.s-1","parameterCategory":1,"la1":30.2991,"la2":30.254,"lo1":-89.0895,"lo2":-89.0444,"dy":0.0017,"dx":0.0017,"nx":28,"ny":28,"refTime":"2024-12-09T09:00:00:Z","depth":0,"parameterNumber":3,"parameterNumberName":"V-component_of_WINDS"},"data":[0,0,0,0,0,0,0,0,0,0,0,0,0,0,0,0,0,0,0,0,0,0,0,0,0,0,0,0,0,0,0,0,0,0,0,0,0,0,0,0,0,0,0,0,0,0,0,0,0,0,0,0,0,0,0,0,0,0,3.3854,3.3856,0,3.4065,3.4068,3.407,3.4113,3.4111,3.411,3.4108,3.4328,3.4335,3.4343,0,0,0,0,0,0,0,0,0,0,0,0,0,3.3492,3.3499,3.3854,3.3857,3.3859,3.4065,3.4068,3.4071,3.4113,3.4111,3.4109,3.4107,3.4326,3.4334,3.4343,0,0,0,0,0,0,0,0,0,0,0,0,0,3.3671,3.3501,3.3854,3.3905,3.3912,3.4064,3.4068,3.4072,3.4114,3.4111,3.4109,3.4106,3.4323,3.4334,3.4344,3.4462,0,0,3.4378,3.4383,0,0,0,0,0,0,0,0,3.3661,3.3684,3.3895,3.3902,3.391,3.406,3.4021,3.4203,3.4114,3.4037,3.4108,3.4105,3.4241,3.4259,3.4304,3.4472,3.4481,3.4379,3.4386,3.4391,3.4394,0,0,0,0,0,0,0,3.3648,3.3675,3.3938,3.3898,3.3907,3.3919,3.3942,3.4056,3.415,3.4044,3.4047,3.4071,3.4245,3.4293,3.4309,3.4485,3.4379,3.4389,3.4396,3.44,3.4764,3.4767,0,0,0,0,0,0,3.3626,3.3665,3.3931,3.3944,3.3777,3.3928,3.3953,3.4014,3.4149,3.4167,3.4073,3.4073,3.4275,3.4296,3.4317,3.4467,3.4391,3.4401,3.4407,3.4761,3.4764,3.4768,0,0,0,0,0,0,3.3618,3.365,3.3923,3.3806,3.3841,3.3937,3.4005,3.402,3.4068,3.4172,3.4189,3.4105,3.4274,3.4302,3.4426,3.4475,3.4406,3.4416,3.4757,3.4762,3.4766,3.4765,0,0,0,0,0,0,3.3608,3.3646,3.3691,3.3806,3.3847,3.4027,3.4008,3.4026,3.4087,3.4088,3.4206,3.4223,3.4275,3.4409,3.4437,3.4489,3.4425,3.4753,3.4759,3.4765,3.4761,3.4769,3.4776,0,0,0,0,0,3.3595,3.3682,3.3693,3.3725,3.3905,3.4029,3.4053,3.4109,3.409,3.4137,3.4204,3.422,3.4464,3.4422,3.4453,3.451,3.4751,3.4758,3.4764,3.4758,3.4768,3.4776,0,0,0,0,0,0,3.3571,3.3698,3.3712,3.3838,3.3923,3.4036,3.4097,3.4117,3.4209,3.4206,3.4272,3.4299,3.442,3.4477,3.4427,3.4632,3.4607,3.462,3.4591,3.4601,3.4608,3.4594,3.4434,0,0,0,0,0,3.358,3.3669,3.3776,3.3878,3.3919,3.4,3.4057,3.4093,3.4183,3.4219,3.4295,3.4383,3.4481,3.4543,3.4638,3.4768,3.4797,3.4823,3.483,3.4835,3.4848,3.4925,3.4939,3.479,3.479,3.479,0,0,3.3601,3.3681,3.3734,3.3875,3.3945,3.4038,3.403,3.4128,3.4199,3.4235,3.4358,3.4416,3.4519,3.4648,3.4708,3.4699,3.4894,3.4844,3.4847,3.4857,3.4933,3.4947,3.496,3.4795,3.4794,3.4793,0,0,3.3688,3.3755,3.385,3.392,3.4025,3.4078,3.41,3.4212,3.4252,3.4376,3.4405,3.449,3.4655,3.4729,3.4788,3.4903,3.4922,3.4931,3.4971,3.5045,3.5057,3.5068,3.5113,3.5128,3.4942,3.4942,3.4942,0,3.3701,3.3841,3.3896,3.3994,3.4057,3.4092,3.419,3.4255,3.4386,3.4429,3.4416,3.4625,3.4697,3.4845,3.4874,3.4918,3.4949,3.492,3.505,3.5062,3.5073,3.5117,3.5133,3.4943,3.4943,3.4943,3.4943,0,3.3855,3.3951,3.4015,3.4141,3.421,3.4307,3.4379,3.4443,3.4473,3.4528,3.4656,3.4742,3.4857,3.4894,3.4923,3.5048,3.5039,3.5037,3.5014,3.5087,3.513,3.5147,3.4944,3.4944,3.4944,3.4943,0,0,3.3935,3.4089,3.4112,3.4171,3.429,3.4367,3.4466,3.4577,3.4633,3.4721,3.4809,3.4948,3.4948,3.5015,3.5052,3.5117,3.5208,3.5108,3.5112,3.5127,3.5355,3.5359,3.5378,3.522,3.5223,3.5226,3.5348,0,3.4039,3.4217,3.427,3.4421,3.4514,3.4548,3.4635,3.4719,3.4773,3.486,3.492,3.502,3.5009,3.505,3.5115,3.5183,3.5255,3.5174,3.5306,3.531,3.5283,3.5399,3.5404,3.5515,3.5364,3.5367,3.5369,0,3.4185,3.4277,3.4437,3.4547,3.4587,3.4665,3.4773,3.4854,3.495,3.4986,3.506,3.5093,3.5201,3.5168,3.5319,3.5263,3.5319,3.536,3.5366,3.5384,3.5347,3.5425,3.5551,3.557,3.5395,3.5393,3.5391,0,3.4233,3.4397,3.4515,3.4563,3.4692,3.4747,3.4803,3.4896,3.4961,3.5055,3.5098,3.5203,3.5262,3.5343,3.5404,3.5374,3.5552,3.5523,3.5587,3.5586,3.5627,3.5624,3.5769,3.5655,3.5655,3.5654,3.5654,0,3.4347,3.4445,3.4539,3.4612,3.4723,3.4783,3.4892,3.495,3.5033,3.512,3.5154,3.5235,3.5309,3.54,3.5448,3.5568,3.5593,3.5627,3.564,3.5627,3.5623,3.5668,3.5664,3.5659,3.5658,3.5657,3.5656,0,3.4422,3.4488,3.4619,3.4731,3.4761,3.4839,3.4935,3.5009,3.5063,3.5173,3.5202,3.5289,3.5398,3.5466,3.5604,3.5637,3.5771,3.5778,3.5739,3.5745,3.5807,3.5802,3.599,3.6019,3.5881,3.5882,3.5883,0,3.4493,3.4569,3.4689,3.4749,3.4806,3.4902,3.4968,3.503,3.5097,3.5213,3.5273,3.5384,3.5477,3.565,3.5727,3.5834,3.5847,3.5905,3.5864,3.585,3.5854,3.5851,3.5861,3.5914,3.5915,3.5916,3.5917,0,3.4613,3.4642,3.4735,3.4841,3.4919,3.5005,3.5091,3.5139,3.5215,3.529,3.5402,3.5473,3.5615,3.5727,3.584,3.59,3.5923,3.5928,3.595,3.594,3.5916,3.5935,3.5763,3.5925,3.5924,3.5924,3.5923,3.5923,3.4692,3.4762,3.4858,3.4962,3.5033,3.5113,3.5189,3.5253,3.5347,3.5467,3.5497,3.5616,3.5712,3.5866,3.5929,3.6023,3.6016,3.6045,3.6054,3.6061,3.6065,3.5897,3.6044,3.6043,3.6043,3.6043,3.6043,0,3.4818,3.4881,3.4976,3.5096,3.5178,3.5189,3.5285,3.5354,3.5458,3.5544,3.5635,3.5765,3.5873,3.5958,3.607,3.613,3.6143,3.6157,3.6156,3.6171,3.6064,3.6036,3.6145,3.6145,3.6145,3.6145,3.6145,3.6145,3.4894,3.5016,3.5056,3.5214,3.5277,3.5393,3.5448,3.5523,3.5593,3.5736,3.5827,3.588,3.5968,3.6086,3.6187,3.6209,3.6251,3.6264,3.6289,3.6188,3.6177,3.6167,3.6142,3.6271,3.6271,3.6389,3.639,3.639]}]]